Hayward, CA

6:38 PM PDT on March 23, 2017 (GMT -0700)
Hayward Executive

Weather History for KHWD - April, 2013

Change the Weather History Date:

Sunday, April 21, 2013

  Actual Average Record
Temperature  
Mean Temperature 66 °F 58 °F  
Max Temperature 82 °F 67 °F 92 °F (2009)
Min Temperature 50 °F 50 °F 39 °F (2001)
Degree Days  
Heating Degree Days 0    
Month to date heating degree days 64  
Since 1 July heating degree days 2143  
Cooling Degree Days 1    
Month to date cooling degree days 1  
Year to date cooling degree days 1  
Growing Degree Days 16 (Base 50)    
Moisture  
Dew Point 46 °F    
Average Humidity 52    
Maximum Humidity 77    
Minimum Humidity 27    
Precipitation  
Precipitation 0.00 in - 0.16 in (2003)
Month to date precipitation 0.44  
Year to date precipitation 1.45  
Since 1 July precipitation 7.43  
Sea Level Pressure  
Sea Level Pressure 30.02 in    
Wind  
Wind Speed 4 mph (WNW)    
Max Wind Speed 16 mph    
Max Gust Speed 20 mph    
Visibility 10 miles    
Events      
T = Trace of Precipitation, MM = Missing Value Source: NWS Daily Summary

Daily Weather History Graph

Daily Weather History Graph

Search for Another Location

Airport or City:

Trip Planner

Search our weather history database for the weather conditions in past years. The results will help you decide how hot, cold, wet, or windy it might be!

Date:

Astronomy

Apr. 21, 2013 Rise Set
Actual Time 6:24 AM PDT 7:49 PM PDT
Civil Twilight 5:57 AM PDT 8:17 PM PDT
Nautical Twilight 5:24 AM PDT 8:50 PM PDT
Astronomical Twilight 4:50 AM PDT 9:25 PM PDT
Moon 3:45 PM PDT (4/21) 3:45 AM PDT (4/21)
Length of Visible Light 14h 19m
Length of Day
13h 25m
Waxing Gibbous, 81% of the Moon is Illuminated
Apr 21
Waxing Gibbous
Apr 25
Full
May 2
Last Quarter
May 9
New
May 17
First Quarter

Hourly Weather History & Observations

Time (PDT) Temp. Dew Point Humidity Pressure Visibility Wind Dir Wind Speed Gust Speed Precip Events Conditions
12:54 AM 55.9 °F 46.9 °F 72% 30.05 in 10.0 mi Calm Calm - N/A   Clear
1:54 AM 53.1 °F 46.0 °F 77% 30.04 in 10.0 mi Calm Calm - N/A   Clear
2:54 AM 52.0 °F 45.0 °F 77% 30.04 in 10.0 mi NE 5.8 mph - N/A   Clear
3:54 AM 52.0 °F 45.0 °F 77% 30.02 in 10.0 mi Calm Calm - N/A   Clear
4:54 AM 51.1 °F 44.1 °F 77% 30.02 in 10.0 mi Calm Calm - N/A   Clear
5:54 AM 51.1 °F 39.9 °F 66% 30.03 in 10.0 mi Calm Calm - N/A   Clear
6:54 AM 51.1 °F 41.0 °F 68% 30.04 in 10.0 mi Calm Calm - N/A   Clear
7:54 AM 55.0 °F 44.1 °F 67% 30.07 in 10.0 mi Calm Calm - N/A   Clear
8:54 AM 61.0 °F 46.9 °F 60% 30.07 in 10.0 mi Calm Calm - N/A   Clear
9:54 AM 64.9 °F 48.9 °F 56% 30.07 in 10.0 mi Calm Calm - N/A   Clear
10:54 AM 68.0 °F 48.0 °F 49% 30.08 in 10.0 mi WSW 5.8 mph - N/A   Clear
11:54 AM 73.0 °F 45.0 °F 37% 30.06 in 10.0 mi WNW 5.8 mph - N/A   Clear
12:54 PM 75.9 °F 45.0 °F 33% 30.04 in 10.0 mi West 9.2 mph - N/A   Clear
1:54 PM 79.0 °F 41.0 °F 26% 30.02 in 10.0 mi WNW 9.2 mph - N/A   Clear
2:54 PM 81.0 °F 46.0 °F 29% 30.01 in 10.0 mi West 11.5 mph - N/A   Clear
3:54 PM 81.0 °F 44.1 °F 27% 29.99 in 10.0 mi WNW 11.5 mph - N/A   Clear
4:54 PM 75.9 °F 50.0 °F 40% 29.98 in 10.0 mi WNW 12.7 mph - N/A   Clear
5:54 PM 78.1 °F 45.0 °F 31% 29.97 in 10.0 mi WNW 11.5 mph - N/A   Clear
6:54 PM 75.0 °F 42.1 °F 31% 29.96 in 10.0 mi NW 9.2 mph - N/A   Clear
7:54 PM 70.0 °F 41.0 °F 35% 29.96 in 10.0 mi NW 5.8 mph - N/A   Clear
8:54 PM 66.9 °F 50.0 °F 54% 29.98 in 10.0 mi West 3.5 mph - N/A   Clear
9:54 PM 64.0 °F 53.1 °F 67% 29.99 in 10.0 mi Calm Calm - N/A   Clear
10:54 PM 64.0 °F 51.1 °F 63% 29.99 in 10.0 mi Calm Calm - N/A   Clear
11:54 PM 62.1 °F 52.0 °F 70% 29.99 in 10.0 mi Calm Calm - N/A   Clear